This demonstration page uses our WeatherBlox Daily Observations layout. Learn more.

36.17497, -115.13722

Hourly Observations for November 9, 2018

Temp ( °F °C ) Dew Point ( °F °C ) Humidity (%) Winds ( mph kmh ) Pressure ( in mb ) Visibility ( mi km ) Precip ( " mm )
12:53 am 00:53 Clear 51 10.6 5 -15 15 15 N 13 20 30.3 1026 10 16.09344 0 0
1:53 am 01:53 Clear 50 10 6 -14.4 17 17 N 15 24 30.3 1026 10 16.09344 0 0
2:53 am 02:53 Clear 50 10 6 -14.4 17 17 N 13 20 30.3 1026 10 16.09344 0 0
3:53 am 03:53 Clear 48 8.9 6 -14.4 18 18 N 12 19 30.33 1027 10 16.09344 0 0
4:53 am 04:53 Clear 49 9.4 6 -14.4 17 17 N 15 24 30.33 1027 10 16.09344 0 0
5:53 am 05:53 Clear 47 8.3 6 -14.4 19 19 N 12 19 30.33 1027 10 16.09344 0 0
6:53 am 06:53 Sunny 49 9.4 5 -15 16 16 N 12 19 30.33 1027 10 16.09344 0 0
7:53 am 07:53 Sunny 50 10 5 -15 16 16 N 15 24 30.36 1028 10 16.09344 0 0
8:53 am 08:53 Sunny 54 12.2 5 -15 14 14 N 14 22 30.36 1028 10 16.09344 0 0
9:53 am 09:53 Sunny 57 13.9 5 -15 12 12 NNE 12 19 30.33 1027 10 16.09344 0 0
10:53 am 10:53 Sunny 61 16.1 2 -16.7 9 9 N 12 19 30.3 1026 10 16.09344 0 0
11:53 am 11:53 Sunny 63 17.2 1 -17.2 8 8 N 7 11 30.27 1025 10 16.09344 0 0
12:53 pm 12:53 Sunny 65 18.3 1 -17.2 8 8 NNE 8 13 30.24 1024 10 16.09344 0 0
1:53 pm 13:53 Sunny 65 18.3 1 -17.2 8 8 E 3 6 30.21 1023 10 16.09344 0 0
2:53 pm 14:53 Sunny 65 18.3 0 -17.8 7 7 Calm 30.18 1022 10 16.09344 0 0
3:53 pm 15:53 Sunny 65 18.3 0 -17.8 7 7 Calm 30.18 1022 10 16.09344 0 0
4:53 pm 16:53 Clear 62 16.7 4 -15.6 10 10 SSE 5 7 30.15 1021 10 16.09344 0 0
5:53 pm 17:53 Clear 58 14.4 7 -13.9 13 13 W 5 7 30.18 1022 10 16.09344 0 0
6:53 pm 18:53 Clear 55 12.8 10 -12.2 16 16 W 6 9 30.18 1022 10 16.09344 0 0
7:53 pm 19:53 Clear 50 10 9 -12.8 19 19 NW 8 13 30.18 1022 10 16.09344 0 0
8:53 pm 20:53 Clear 48 8.9 7 -13.9 19 19 NNW 7 11 30.15 1021 10 16.09344 0 0
9:53 pm 21:53 Clear 48 8.9 5 -15 17 17 WNW 6 9 30.15 1021 10 16.09344 0 0
10:53 pm 22:53 Clear 45 7.2 10 -12.2 24 24 W 6 9 30.15 1021 10 16.09344 0 0
11:53 pm 23:53 Clear 45 7.2 10 -12.2 24 24 Calm 30.15 1021 10 16.09344 0 0

Powered by AerisWeather